www.pogodaiklimat.ru

Погода и климат >> Архив погоды >> Аргентина >> Сан-Рамон-де-ла-Нуэва-Оран


ПОГОДА в Сан-Рамон-де-ла-Нуэва-Оране

  • Прогноз погоды в Сан-Рамон-де-ла-Нуэва-Оране
  • Монитор погоды в Сан-Рамон-де-ла-Нуэва-Оране

АРХИВ ПОГОДЫ в Сан-Рамон-де-ла-Нуэва-Оране

Время (UTC), дата Ветер
(напр.,м/с)
 
Видим.   Явления Облачность Т
(С)
Тd
(С)
f
(%)
Тe
(С)
Тes
(С)
Комфортность P
(гПа)
Po
(гПа)
Тmin
(С)
Tmax
(С)
R
(мм)
R24
(мм)
S
(см)
21 14.04 штиль 0 10 км 5/1 600 м
[Cu hum Cs]
+30.5 +19.9 53 +37 +38 очень
душно
1007.2 967.0
00 15.04 штиль 0 10 км 5/3 600 м
[Sc Cs]
+23.5 +20.9 85 +29 +29 душно 1009.7 969.0 +20.5 +31.2
03 15.04 ЮВ 3 10 км 5/3 600 м
[Sc Cs]
+22.3 +20.8 91 +29 +29 очень
душно
1010.4 970.1
06 15.04 штиль 0 10 км 4/0
[Cs]
+21.9 +20.2 90 +28 +28 душно 1009.6 969.4
09 15.04 штиль 0 10 км 5/0
[Cs]
+20.0 +19.1 95 +23 +23 комфорт 1008.8 968.6
12 15.04 СВ 3 15 км 5/5 600 м
[Sc]
+21.5 +19.2 87 +26 +27 душно 1011.3 970.6 +19.3 +23.5
15 15.04 С 1 15 км 6/3 600 м
[Cu hum Ac und]
+27.4 +20.2 65 +34 +41 очень
душно
1011.5 971.2
18 15.04 Ю 1 15 км 5/5 600 м
[Cu Sc]
+30.1 +20.8 58 +37 +45 очень
душно
1009.4 969.3
21 15.04 Ю 1 15 км 4/4 600 м
[Sc]
+30.0 +20.5 57 +37 +38 очень
душно
1009.9 969.7
00 16.04 штиль 0 10 км зарница 3/3 600 м
[Cb calv]
+24.2 +21.5 85 +31 +31 очень
душно
1012.6 972.0 +21.5 +31.2
06 16.04 Ю 3 3000 м слаб. дождь 10/4 180 м
[Frnb As op]
+22.3 +20.9 92 +29 +29 очень
душно
1016.1 975.8 0.7
09 16.04 ЮВ 3 2000 м слаб. морось {дождь} 10/10 150 м
[Frnb]
+22.1 +20.9 93 +29 +29 очень
душно
1017.0 976.6
12 16.04 Ю 1 5000 м осадки на расстоянии {морось} 10/10 150 м
[Frnb]
+20.4 +19.5 95 +26 +26 душно 1019.4 978.4 +20.0 +24.2 3
15 16.04 В 1 8000 м осадки на расстоянии 10/10 300 м
[Cu Sc]
+20.4 +20.1 98 +26 +26 душно 1019.3 978.2
18 16.04 В 1 10 км 9/9 300 м
[Cu Sc]
+24.0 +19.2 75 +29 +30 душно 1015.3 974.6
21 16.04 штиль 0 12 км 6/6 600 м
[Sc]
+24.0 +19.4 75 +29 +30 душно 1011.3 970.8
00 17.04 штиль 0 12 км 9/9 600 м
[Sc]
+21.0 +19.4 91 +25 +25 комфорт 1012.7 971.8 +20.4 +25.8
03 17.04 В 3 10 км 10/10 600 м
[Sc]
+21.2 +18.8 86 +26 +26 душно 1014.1 973.3
06 17.04 ЮВ 1 10 км 10/10 600 м
[Sc]
+20.4 +19.5 95 +26 +26 душно 1011.8 971.0
09 17.04 штиль 0 1000 м слаб. морось 10/10 150 м
[Frnb]
+19.8 +19.5 98 +23 +23 комфорт 1010.9 970.2
12 17.04 ЮВ 1 2500 м слаб. морось 10/10 150 м
[Frnb]
+19.9 +19.6 98 +24 +24 комфорт 1012.2 971.3 +19.3 +21.2 3
15 17.04 В 1 800 м слаб. морось 10/10 150 м
[Frnb]
+20.8 +20.5 98 +27 +27 душно 1012.7 971.8
18 17.04 ЮВ 1 800 м слаб. морось 10/10 150 м
[Frnb]
+22.0 +21.5 97 +29 +29 очень
душно
1010.1 969.4 2
21 17.04 ЮВ 3 1000 м слаб. морось 10/10 150 м
[Frnb]
+22.3 +21.7 96 +29 +29 очень
душно
1009.2 968.5
00 18.04 штиль 0 2000 м слаб. морось 10/10 150 м
[Frnb]
+21.7 +21.4 98 +28 +28 душно 1010.5 969.7 +19.9 +22.7 2
03 18.04 штиль 0 800 м морось 10/10 150 м
[Frnb]
+21.5 +21.3 99 +27 +27 душно 1010.8 970.0
06 18.04 штиль 0 1500 м слаб. морось 10/10 150 м
[Frnb]
+21.3 +21.0 98 +27 +27 душно 1009.1 968.5 4
09 18.04 штиль 0 1500 м слаб. морось 10/10 150 м
[Frnb]
+21.3 +21.1 99 +27 +27 душно 1007.9 967.3
12 18.04 штиль 0 1000 м слаб. морось 10/10 150 м
[Frnb]
+21.4 +20.9 97 +27 +27 душно 1009.9 969.2 +21.0 +21.7 2
15 18.04 З 1 10 км в посл. час морось 10/10 240 м
[Frnb]
+24.2 +22.0 88 +31 +31 очень
душно
1009.4 968.9
18 18.04 штиль 0 10 км {морось} 10/5 540 м
[Cu Sc Ac As]
+25.3 +21.9 81 +33 +35 очень
душно
1006.1 965.8 0.3
21 18.04 штиль 0 10 км 9/4 600 м
[Sc Ac As]
+24.6 +23.1 91 +33 +33 очень
душно
1004.9 964.6
00 19.04 штиль 0 10 км 10/10 600 м
[Sc]
+23.5 +23.1 98 +31 +31 очень
душно
1006.2 965.8 +21.4 +25.6
03 19.04 штиль 0 10 км 10/10 600 м
[Sc]
+23.0 +22.1 95 +31 +31 очень
душно
1006.4 966.1
06 19.04 штиль 0 10 км 10/10 600 м
[Sc]
+21.5 +20.4 93 +27 +27 душно 1005.7 965.4
09 19.04 штиль 0 10 км 10/10 600 м
[Sc]
+22.0 +20.5 91 +28 +28 душно 1005.5 965.2
12 19.04 штиль 0 8000 м дымка 9/9 600 м
[Sc]
+22.8 +22.1 96 +31 +31 очень
душно
1007.4 967.0 +21.5 +23.5 0.3
15 19.04 ЮВ 3 10 км 6/3 600 м
[Sc Ac und]
+27.2 +22.5 76 +36 +42 очень
душно
1007.2 967.0
18 19.04 штиль 0 10 км 8/3 600 м
[Cu hum Ac und]
+28.5 +23.3 73 +38 +44 очень
душно
1004.8 964.8
21 19.04 штиль 0 10 км 5/3 600 м
[Cu hum Ac und]
+29.5 +23.6 71 +40 +41 очень
душно
1003.1 963.2
00 20.04 штиль 0 10 км 5/5 600 м
[Sc]
+25.3 +23.3 89 +34 +34 очень
душно
1005.0 964.8 +22.8 +29.8
03 20.04 штиль 0 10 км 5/5 600 м
[Sc]
+23.2 +21.6 91 +31 +31 очень
душно
1006.4 966.2
06 20.04 Ю 1 10 км 5/5 600 м
[Sc]
+22.8 +21.3 91 +30 +30 очень
душно
1006.3 966.2
09 20.04 Ю 1 10 км 6/6 600 м
[Sc]
+23.3 +22.6 96 +32 +32 очень
душно
1005.8 965.8
12 20.04 Ю 3 10 км 9/9 600 м
[Sc]
+24.2 +22.3 89 +31 +32 очень
душно
1007.6 967.4 +22.8 +25.3
15 20.04 Ю 3 10 км 8/3 600 м
[Cu hum Ac und]
+27.2 +23.5 80 +37 +41 очень
душно
1007.8 967.7
18 20.04 ЮВ 3 10 км 9/4 600 м
[Cu hum Ac und]
+29.8 +23.8 70 +41 +43 опасность
перегрева
1004.9 965.4
21 20.04 ЮВ 1 10 км 8/8 600 м
[Cu med, cong]
+28.2 +23.5 76 +38 +39 очень
душно
1004.6 964.6
00 21.04 штиль 0 10 км 9/9 600 м
[Sc]
+25.8 +24.2 91 +36 +36 очень
душно
1007.0 966.9 +24.2 +30.7
03 21.04 штиль 0 10 км 6/6 600 м
[Sc]
+24.4 +22.3 88 +32 +32 очень
душно
1008.5 968.4
06 21.04 штиль 0 10 км 10/10 600 м
[Sc]
+23.6 +21.8 90 +30 +30 очень
душно
1007.5 967.6
09 21.04 штиль 0 1500 м слаб. морось 10/10 180 м
[Frnb]
+22.4 +21.8 96 +30 +30 очень
душно
1007.5 967.4
12 21.04 штиль 0 1500 м слаб. морось 10/10 150 м
[Frnb]
+22.1 +21.8 98 +29 +29 очень
душно
1009.7 969.3 +21.9 +25.8 3
15 21.04 ЮВ 1 10 км {морось} 10/10 300 м
[Cu Sc]
+24.2 +21.8 86 +31 +31 очень
душно
1010.1 969.8
18 21.04 Ю 3 4000 м в посл. час дождь {морось} 10/10 210 м
[Frnb]
+24.4 +22.6 90 +32 +32 очень
душно
1008.0 967.7 0.5

 

Местоположение метеостанции Сан-Рамон-де-ла-Нуэва-Оран (Аргентина): широта -23.15 долгота -64.31 высота над уровнем моря 357 м.

В архиве по умолчанию представлена погода в Сан-Рамон-де-ла-Нуэва-Оране за последнюю неделю. Архивные данные за месяц целиком и за предыдущие месяцы, начиная с января 2011 года, Вы можете получить, выбрав интересующий диапазон дат из раскрывающегося списка и нажав кнопку "Ввод!".


*Определитесь, кто Вы:
робот инопланетянин человек

Внимание! Время в таблицах - всемирное. Для получения местного времени необходимо прибавить поправку, которая равна -3 ч.

Смотрите также архив погоды в соседних городах и на ближайших метеорологических станциях:

Погода в Бермехо (Боливия) (43 км)
Погода в Тартагале (Аргентина) (79 км)
Погода в Якуибе (Боливия) (150 км)
Погода в Сан-Сальвадор-де-Жужуе (Аргентина) (158 км)
Погода в Ла-Кьяке (Аргентина) (177 км)
Погода в Тарихе (Боливия) (182 км)
Погода в Сальте (Аргентина) (223 км)
Погода в Вилья-Монтесе (Боливия) (229 км)
Погода в Пратс-Гиле (Парагвай) (292 км)
Погода в Камири (Боливия) (360 км)

Пояснения к столбцам:

Ветер - указаны скорость ветра в м/с - средняя за 10 мин, порывы в срок и между сроками (в фигурных скобках) и направление, откуда дует ветер: С - северный, СВ - северо-восточный, В - восточный, ЮВ - юго-восточный, Ю - южный, ЮЗ - юго-западный, З - западный, СЗ - северо-западный.
Видимость - горизонтальная дальность видимости в метрах или километрах. При видимости от 1 до 10 км при отсутствии осадков обычно наблюдается дымка, при ухудшении видимости до 1 км и менее - туман. В сухую погоду видимость может ухудшаться дымом, пылью или мглою.
Явления - указаны атмосферные явления, наблюдавшиеся в срок или в последний час перед сроком; фигурными скобками обозначены явления, наблюдавшиеся между сроками (за 1-3 часа до срока); квадратными скобками обозначены град или гололедные отложения с указанием их диаметра в мм.
Облачность - указаны через наклонную черту общая и нижняя облачность в баллах и высота нижней границы облаков в метрах; квадратными скобками обозначены формы облаков: Ci - перистые, Cs - перисто-слоистые, Cc - перисто-кучевые, Ac - высококучевые, As - высокослоистые, Sc - слоисто-кучевые, Ns - слоисто-дождевые, Cu - кучевые, Cb - кучево-дождевые. Подробнее классификацию облаков см. в Атласе облаков (PDF).
T - Температура воздуха - температура, измеренная на высоте 2 м над землей.
Td - Температура точки росы - температура, при понижении до которой содержащийся в воздухе водяной пар достигнет насыщения.
f - Относительная влажность воздуха - влажноcть воздуха, измеренная на высоте 2 м над землей.
Te - Эффективная температура - температура, которую ощущает одетый по сезону человек в тени. Характеристика душности погоды. При расчете учитывается влияние влажности воздуха и скорости ветра на теплоощущения человека.
Tes - Эффективная температура на солнце - температура, которую ощущает человек, с поправкой на солнечный нагрев. Характеристика знойности погоды. Зависит от высоты солнца над горизонтом, облачности и скорости ветра. Ночью, в пасмурную погоду, а также при ветре 12 м/с и более поправка равна нулю.
P - Атмосферное давление - приведенное к уровню моря атмосферное давление.
Po - Атмосферное давление - измеренное на уровне метеостанции атмосферное давление.
Tmin - Минимальная температура - минимум температуры воздуха на высоте 2 м над землей.
Tmax - Максимальная температура - максимум температуры воздуха на высоте 2 м над землей.
R - Количество осадков - Количество выпавших осадков за период времени, мм. При наведении курсора мыши на число - период времени, за который выпало указанное количество осадков.
R24 - Количество осадков - Количество выпавших осадков за 24 часа, мм.
S - Снежный покров - Высота снежного покрова, см. При наведении курсора мыши на число - состояние снежного покрова и степень покрытия местности в баллах.